Regional Weather Roundup
Issued by NWS

Home | Current Version | Previous Version | Graphics & Text | Print | Product List | Glossary On
Versions: 1 2 3 4 5 6 7 8 9 10 11 12 13 14 15 16 17 18 19 20 21 22 23 24 25 26 27 28 29 30 31 32 33 34 35 36 37 38 39 40 41 42 43 44 45 46 47 48 49 50
000
ASUS43 KLMK 021610
RWRKY
KENTUCKY REGIONAL WEATHER ROUNDUP
NATIONAL WEATHER SERVICE LOUISVILLE KY
1200 PM EDT TUE SEP 02 2014

NOTE "FAIR" INDICATES FEW OR NO CLOUDS BELOW 12,000 FEET
WITH NO SIGNIFICANT WEATHER AND/OR OBSTRUCTIONS TO VISIBILITY.

KYZ001>023-026-027-061>063-070>075-021700-
WESTERN AND SOUTH CENTRAL KENTUCKY

CITY           SKY/WX    TMP DP  RH WIND       PRES   REMARKS
PADUCAH        CLOUDY    82  72  71 SW9       29.96F
HENDERSON      PTSUNNY   82  73  74 SW7       29.96F
OWENSBORO      MOSUNNY   82  75  78 SW12      29.97F
HOPKINSVILLE   MOSUNNY   86  76  72 SW16      30.01F HX  95
BOWLING GREEN  PTSUNNY   85  72  65 SW17      30.01F HX  91
GLASGOW        MOSUNNY   84  71  64 W10       30.02S
$$

KYZ024-025-028>034-038-045-046-053-021700-
NORTH CENTRAL KENTUCKY

CITY           SKY/WX    TMP DP  RH WIND       PRES   REMARKS
LOUISVILLE/SDF CLOUDY    79  70  74 SW10      29.98F
LOUISVILLE/LOU PTSUNNY   78  71  79 SW6       29.99F
FORT KNOX      PTSUNNY   79  73  83 S13       29.99F
$$

KYZ035>037-039>044-047>052-055>060-089>105-021700-
NORTHEAST KENTUCKY

CITY           SKY/WX    TMP DP  RH WIND       PRES   REMARKS
LEXINGTON      MOSUNNY   80  69  69 SW10      30.02S
COVINGTON      CLOUDY    74  68  81 SW13G21   29.98R
FRANKFORT      PTSUNNY   79  69  71 SW9       30.00R
$$

KYZ054-064>069-076>088-106>120-021700-
SOUTHEAST KENTUCKY

CITY           SKY/WX    TMP DP  RH WIND       PRES   REMARKS
JACKSON        PTSUNNY   81  71  71 VRB3      30.06F
LONDON         MOSUNNY   84  69  60 SW13      30.08F
SOMERSET       MOSUNNY   82  68  61 SW8G16    30.06F
MIDDLESBORO    PTSUNNY   85  71  61 SW6       30.09F HX  90
MONTICELLO     SUNNY     85  73  67 SW10      30.07F HX  91
$$




USA.gov is the U.S. government's official web portal to all federal, state and local government web resources and services.